Location: Unspecified
(20.0000°S, 0.0000°E)
Time: 18:12:19
(UTC+00:00)

BEESAT - Visible Passes

Search period start: 23 August 2019 00:00
Search period end: 02 September 2019 00:00
Orbit: 701 x 709 km, 98.6° (Epoch: 23 August)

Date Brightness Start Highest point End Pass type
(mag) Time Alt. Az. Time Alt. Az. Time Alt. Az.
23 Aug ? 04:54:40 10° SSE 04:59:28 72° ENE 05:04:11 10° N visible
24 Aug ? 04:02:24 10° ESE 04:05:07 15° E 04:07:48 10° NE visible
24 Aug ? 05:38:31 10° SSW 05:42:46 32° WSW 05:46:59 10° NW visible
25 Aug ? 04:43:59 10° SSE 04:48:39 51° E 04:53:15 10° N visible
26 Aug ? 03:53:17 10° E 03:54:14 11° E 03:55:12 10° ENE visible
26 Aug ? 05:27:27 10° S 05:32:00 44° WSW 05:36:30 10° NNW visible
27 Aug ? 04:33:24 10° SSE 04:37:49 37° E 04:42:11 10° NNE visible
28 Aug ? 05:16:30 10° S 05:21:13 62° WSW 05:25:54 10° NNW visible
29 Aug ? 04:22:56 10° SE 04:26:59 27° E 04:30:58 10° NNE visible
30 Aug ? 05:05:38 10° S 05:10:26 86° WSW 05:15:11 10° NNW visible
31 Aug ? 04:12:40 10° SE 04:16:08 20° E 04:19:33 10° NE visible
01 Sep ? 04:54:51 10° SSE 04:59:38 69° ENE 05:04:20 10° N visible
